Voltar ao catálogo

SL-12 DEB

LostHEO
NORAD 44871·DEBRIS·🇷🇺 Russia

Lançado Sep 2, 2010 de Baikonur Cosmodrome

Loading…

Próximas Passagens (próximas 24 horas)

TLE

ObsoletoSource: Space-Track

Época: Jan 12, 2023, 23:31 UTC

1 44871U 10041AL  23012.97997031 -.00001564  00000-0 -87810-2 0  9997
2 44871  65.5561 224.0600 5690253 332.3866   6.4769  4.20153138 51183

Acompanhe SL-12 DEB em tempo real com AllMySat

Download on the App Store